Powrót do katalogu

SYRACUSE 3B

AktywnyMilitariaGEO
NORAD 29273·PAYLOAD·🇫🇷 France

Wystrzelony Aug 11, 2006 z Guiana Space Centre

Loading…

TLE

ŚwieżeSource: Space-Track

Epoka: Sep 14, 2026, 10:12 UTC

1 29273U 06033B   26257.42562450 -.00000208  00000-0  00000-0 0  9996
2 29273   3.1347  79.0463 0000277  25.9785   6.8071  0.98628725 73542

Śledź SYRACUSE 3B w czasie rzeczywistym z AllMySat

Download on the App Store